Location: Unspecified
(0.0000°N, 0.0000°E)
Time: 23:11:28
(UTC+02:00)

AO-40 - Visible Passes

Search period start: 22 June 2018 00:00
Search period end: 02 July 2018 00:00
Orbit: 1024 x 58795 km, 6.1° (Epoch: 20 June)

Date Brightness Start Highest point End Pass type
(mag) Time Alt. Az. Time Alt. Az. Time Alt. Az.
22 Jun ? 19:04:15 10° E 23:25:29 45° E 00:56:09 10° E visible
23 Jun ? 21:16:38 10° W 22:48:07 48° W 03:24:24 10° W visible
24 Jun ? 15:57:05 10° W 22:23:27 84° N 04:56:22 10° W visible
25 Jun ? 17:23:25 10° E 23:57:01 83° N 05:49:24 10° E visible
26 Jun ? 18:57:10 10° E 22:57:30 41° E 00:26:15 10° E visible
27 Jun ? 20:47:16 10° W 22:19:56 52° W 03:16:44 10° W visible
28 Jun ? 15:29:22 10° W 22:15:30 83° N 04:48:27 10° W visible
29 Jun ? 17:15:00 10° E 23:49:47 83° N 05:21:38 10° E visible
30 Jun ? 18:50:30 10° E 22:29:37 37° E 23:55:58 10° E visible
